,,,PA_Meas_PMT16A,,PR_Meas_QMR101_102,,RH_Meas_QMH101,,SR_Meas_QMS101,,TA_Meas_QMH101,,GenWind,,GenWind,
date,time,status,PA,status,PR,status,RH,status,SR,status,TA,status,DirAvg,status,SpdAvg,
2008-09-15, 00:00:04,VALID,1012.43,VALID,0,VALID,94.3763,VALID,0.105969,VALID,22.6208,VALID,105,VALID,0.849609,
2008-09-15, 00:01:04,VALID,1012.43,VALID,0,VALID,94.3992,VALID,0.105969,VALID,22.6208,VALID,140,VALID,0.913672,
2008-09-15, 00:02:05,VALID,1012.4,VALID,0,VALID,94.3611,VALID,0.105969,VALID,22.6402,VALID,143,VALID,1.25508,
2008-09-15, 00:03:05,VALID,1012.4,VALID,0,VALID,94.3611,VALID,0,VALID,22.6208,VALID,135,VALID,0.984375,
2008-09-15, 00:04:05,VALID,1012.4,VALID,0,VALID,94.2924,VALID,0.105969,VALID,22.6402,VALID,141,VALID,0.979688,
2008-09-15, 00:05:05,VALID,1012.39,VALID,0,VALID,94.3534,VALID,0,VALID,22.6208,VALID,136,VALID,0.297266,
2008-09-15, 00:06:05,VALID,1012.35,VALID,0,VALID,94.3763,VALID,0,VALID,22.6208,VALID,106,VALID,0.760938,
2008-09-15, 00:07:05,VALID,1012.33,VALID,0,VALID,94.4221,VALID,0.105969,VALID,22.6402,VALID,122,VALID,0.588672,
2008-09-15, 00:08:05,VALID,1012.3,VALID,0,VALID,94.4831,VALID,0.105969,VALID,22.6208,VALID,88,VALID,0.770703,
2008-09-15, 00:09:05,VALID,1012.28,VALID,0,VALID,94.506,VALID,0,VALID,22.6402,VALID,133,VALID,0.634766,
2008-09-15, 00:10:05,VALID,1012.28,VALID,0,VALID,94.5136,VALID,0.105969,VALID,22.6208,VALID,111,VALID,0.446094,
2008-09-15, 00:11:05,VALID,1012.23,VALID,0,VALID,94.5517,VALID,0.105969,VALID,22.6208,VALID,92,VALID,0.461719,
2008-09-15, 00:12:05,VALID,1012.22,VALID,0,VALID,94.5517,VALID,0.105969,VALID,22.642,VALID,99,VALID,0.572266,
2008-09-15, 00:13:05,VALID,1012.19,VALID,0,VALID,94.567,VALID,0.105969,VALID,22.6208,VALID,113,VALID,0.335547,
2008-09-15, 00:14:05,VALID,1012.17,VALID,0,VALID,94.5441,VALID,0.105969,VALID,22.5818,VALID,136,VALID,0.3875,
2008-09-15, 00:15:05,VALID,1012.14,VALID,0,VALID,94.5898,VALID,0.105969,VALID,22.6013,VALID,136,VALID,0.684766,
2008-09-15, 00:16:05,VALID,1012.15,VALID,0,VALID,94.5517,VALID,0.105969,VALID,22.6208,VALID,127,VALID,0.555469,
2008-09-15, 00:17:05,VALID,1012.09,VALID,0,VALID,94.5212,VALID,0.105969,VALID,22.6225,VALID,141,VALID,0.748828,
2008-09-15, 00:18:05,VALID,1012.07,VALID,0,VALID,94.4755,VALID,0.105969,VALID,22.5801,VALID,130,VALID,1.04258,
2008-09-15, 00:19:05,VALID,1012.08,VALID,0,VALID,94.4755,VALID,0.105969,VALID,22.5818,VALID,140,VALID,0.732422,
2008-09-15, 00:20:05,VALID,1012.07,VALID,0,VALID,94.4907,VALID,0.105969,VALID,22.5606,VALID,137,VALID,0.580469,
2008-09-15, 00:21:05,VALID,1012.09,VALID,0,VALID,94.5136,VALID,0,VALID,22.5818,VALID,126,VALID,0.819531,
2008-09-15, 00:22:05,VALID,1012.07,VALID,0,VALID,94.5365,VALID,0,VALID,22.603,VALID,143,VALID,0.866797,
2008-09-15, 00:23:05,VALID,1012.08,VALID,0,VALID,94.5517,VALID,0,VALID,22.5835,VALID,127,VALID,0.569141,
2008-09-15, 00:24:05,VALID,1012.06,VALID,0,VALID,94.5441,VALID,0,VALID,22.5835,VALID,125,VALID,0.175,
2008-09-15, 00:25:05,VALID,1012.05,VALID,0,VALID,94.5746,VALID,0,VALID,22.5835,VALID,95,VALID,0.46875,
2008-09-15, 00:26:05,VALID,1012.04,VALID,0,VALID,94.5975,VALID,0,VALID,22.5623,VALID,95,VALID,0.402344,
2008-09-15, 00:27:05,VALID,1012.01,VALID,0,VALID,94.6203,VALID,0,VALID,22.5835,VALID,87,VALID,0.669922,
2008-09-15, 00:28:05,VALID,1012.01,VALID,0,VALID,94.6737,VALID,0,VALID,22.603,VALID,140,VALID,0.760156,
2008-09-15, 00:29:05,VALID,1012.02,VALID,0,VALID,94.6966,VALID,0,VALID,22.603,VALID,107,VALID,0.459766,
2008-09-15, 00:30:05,VALID,1012.01,VALID,0,VALID,94.7119,VALID,0,VALID,22.603,VALID,92,VALID,0.68125,
2008-09-15, 00:31:05,VALID,1011.98,VALID,0,VALID,94.7042,VALID,0,VALID,22.5835,VALID,119,VALID,0.496875,
2008-09-15, 00:32:05,VALID,1011.97,VALID,0,VALID,94.7042,VALID,0,VALID,22.603,VALID,118,VALID,0.520703,
2008-09-15, 00:33:05,VALID,1011.97,VALID,0,VALID,94.7042,VALID,0,VALID,22.603,VALID,123,VALID,0.575391,
2008-09-15, 00:34:05,VALID,1011.93,VALID,0,VALID,94.7042,VALID,0,VALID,22.5835,VALID,146,VALID,0.682031,
2008-09-15, 00:35:05,VALID,1011.9,VALID,0,VALID,94.6966,VALID,0,VALID,22.5835,VALID,134,VALID,0.509766,
2008-09-15, 00:36:05,VALID,1011.91,VALID,0,VALID,94.6661,VALID,0.105969,VALID,22.5818,VALID,135,VALID,0.584766,
2008-09-15, 00:37:05,VALID,1011.87,VALID,0,VALID,94.689,VALID,0.105969,VALID,22.5818,VALID,103,VALID,0.485938,
2008-09-15, 00:38:05,VALID,1011.87,VALID,0,VALID,94.7119,VALID,0.105969,VALID,22.5606,VALID,118,VALID,0.724219,
2008-09-15, 00:39:05,VALID,1011.83,VALID,0,VALID,94.7729,VALID,0.105969,VALID,22.6208,VALID,70,VALID,0.386328,
2008-09-15, 00:40:05,VALID,1011.82,VALID,0,VALID,94.7729,VALID,0.105969,VALID,22.5606,VALID,70,VALID,0.241406,
2008-09-15, 00:41:05,VALID,1011.79,VALID,0,VALID,94.7957,VALID,0.105969,VALID,22.5818,VALID,70,VALID,0,
2008-09-15, 00:42:05,VALID,1011.8,VALID,0,VALID,94.8339,VALID,0.105969,VALID,22.5818,VALID,70,VALID,0,
2008-09-15, 00:43:05,VALID,1011.76,VALID,0,VALID,94.8644,VALID,0.105969,VALID,22.5818,VALID,70,VALID,0,
2008-09-15, 00:44:05,VALID,1011.8,VALID,0,VALID,94.872,VALID,0.105969,VALID,22.5623,VALID,71,VALID,0,
2008-09-15, 00:45:05,VALID,1011.77,VALID,0,VALID,94.9101,VALID,0.105969,VALID,22.5623,VALID,72,VALID,0,
2008-09-15, 00:46:05,VALID,1011.76,VALID,0,VALID,94.9025,VALID,0.105969,VALID,22.5411,VALID,73,VALID,0,
2008-09-15, 00:47:05,VALID,1011.75,VALID,0,VALID,94.8949,VALID,0.105969,VALID,22.5623,VALID,73,VALID,0,
2008-09-15, 00:48:05,VALID,1011.75,VALID,0,VALID,94.9254,VALID,0.105969,VALID,22.5234,VALID,74,VALID,0.0953125,
2008-09-15, 00:49:05,VALID,1011.73,VALID,0,VALID,94.9406,VALID,0.105969,VALID,22.5429,VALID,89,VALID,0.335547,
2008-09-15, 00:50:05,VALID,1011.72,VALID,0,VALID,94.9406,VALID,0.105969,VALID,22.5234,VALID,89,VALID,0.539453,
2008-09-15, 00:51:05,VALID,1011.73,VALID,0,VALID,94.9483,VALID,0,VALID,22.5056,VALID,90,VALID,0.325,
2008-09-15, 00:52:05,VALID,1011.72,VALID,0,VALID,94.9483,VALID,0,VALID,22.5251,VALID,102,VALID,0.853125,
2008-09-15, 00:53:05,VALID,1011.71,VALID,0,VALID,94.9254,VALID,0,VALID,22.5251,VALID,101,VALID,1.11836,
2008-09-15, 00:54:05,VALID,1011.73,VALID,0,VALID,94.8644,VALID,0,VALID,22.5463,VALID,103,VALID,0.919141,
2008-09-15, 00:55:05,VALID,1011.74,VALID,0,VALID,94.8644,VALID,0,VALID,22.5658,VALID,119,VALID,0.877734,
2008-09-15, 00:56:05,VALID,1011.75,VALID,0,VALID,94.8568,VALID,0,VALID,22.5446,VALID,95,VALID,0.553516,
2008-09-15, 00:57:05,VALID,1011.73,VALID,0,VALID,94.8186,VALID,0,VALID,22.5251,VALID,104,VALID,0.852344,
2008-09-15, 00:58:05,VALID,1011.74,VALID,0,VALID,94.8339,VALID,0,VALID,22.5446,VALID,84,VALID,0.582422,
2008-09-15, 00:59:05,VALID,1011.71,VALID,0,VALID,94.8415,VALID,0,VALID,22.5446,VALID,85,VALID,0.820313,
2008-09-15, 01:00:05,VALID,1011.69,VALID,0,VALID,94.811,VALID,0,VALID,22.5251,VALID,89,VALID,0.752344,
2008-09-15, 01:01:05,VALID,1011.7,VALID,0,VALID,94.8034,VALID,0,VALID,22.5251,VALID,72,VALID,0.624609,
2008-09-15, 01:02:05,VALID,1011.7,VALID,0,VALID,94.8262,VALID,0,VALID,22.5056,VALID,74,VALID,0.769141,
2008-09-15, 01:03:05,VALID,1011.68,VALID,0,VALID,94.8339,VALID,0,VALID,22.5056,VALID,69,VALID,0.576172,
2008-09-15, 01:04:05,VALID,1011.69,VALID,0,VALID,94.8339,VALID,0,VALID,22.4861,VALID,70,VALID,0.731641,
2008-09-15, 01:05:05,VALID,1011.67,VALID,0,VALID,94.872,VALID,0,VALID,22.5056,VALID,73,VALID,0.626953,
2008-09-15, 01:06:05,VALID,1011.67,VALID,0,VALID,94.8873,VALID,0,VALID,22.4667,VALID,57,VALID,0.717188,
2008-09-15, 01:07:05,VALID,1011.68,VALID,0,VALID,94.8873,VALID,0,VALID,22.4277,VALID,55,VALID,0.717188,
2008-09-15, 01:08:05,VALID,1011.67,VALID,0,VALID,94.9254,VALID,0,VALID,22.4082,VALID,47,VALID,0.864844,
2008-09-15, 01:09:05,VALID,1011.69,VALID,0,VALID,94.9711,VALID,0,VALID,22.4082,VALID,47,VALID,0.464453,
2008-09-15, 01:10:05,VALID,1011.7,VALID,0,VALID,94.9635,VALID,0,VALID,22.3887,VALID,18,VALID,0.552734,
2008-09-15, 01:11:05,VALID,1011.7,VALID,0,VALID,95.0093,VALID,0,VALID,22.3904,VALID,38,VALID,0.476953,
2008-09-15, 01:12:05,VALID,1011.72,VALID,0,VALID,95.0321,VALID,0,VALID,22.3498,VALID,33,VALID,0.479297,
2008-09-15, 01:13:05,VALID,1011.71,VALID,0,VALID,95.0398,VALID,0,VALID,22.3303,VALID,32,VALID,0.483984,
2008-09-15, 01:14:05,VALID,1011.7,VALID,0,VALID,95.0626,VALID,0,VALID,22.3498,VALID,34,VALID,0.463672,
2008-09-15, 01:15:05,VALID,1011.72,VALID,0,VALID,95.0931,VALID,0,VALID,22.3303,VALID,34,VALID,0.411328,
2008-09-15, 01:16:05,VALID,1011.73,VALID,0,VALID,95.116,VALID,0,VALID,22.3498,VALID,34,VALID,0.306641,
2008-09-15, 01:17:05,VALID,1011.73,VALID,0,VALID,95.1618,VALID,0,VALID,22.3303,VALID,34,VALID,0.260938,
2008-09-15, 01:18:05,VALID,1011.73,VALID,0,VALID,95.1847,VALID,0,VALID,22.2897,VALID,29,VALID,0.309375,
2008-09-15, 01:19:05,VALID,1011.7,VALID,0,VALID,95.1847,VALID,0,VALID,22.3303,VALID,29,VALID,0.136719,
2008-09-15, 01:20:05,VALID,1011.72,VALID,0,VALID,95.2457,VALID,0,VALID,22.3498,VALID,29,VALID,0.245312,
2008-09-15, 01:21:05,VALID,1011.7,VALID,0,VALID,95.2762,VALID,0,VALID,22.332,VALID,30,VALID,0.232812,
2008-09-15, 01:22:05,VALID,1011.65,VALID,0,VALID,95.2838,VALID,0,VALID,22.3303,VALID,68,VALID,0.415234,
2008-09-15, 01:23:05,VALID,1011.62,VALID,0,VALID,95.2914,VALID,0,VALID,22.3108,VALID,68,VALID,0.144531,
2008-09-15, 01:24:05,VALID,1011.63,VALID,0,VALID,95.3219,VALID,0,VALID,22.3303,VALID,44,VALID,0.400781,
2008-09-15, 01:25:05,VALID,1011.64,VALID,0,VALID,95.3448,VALID,0,VALID,22.3515,VALID,43,VALID,0.0890625,
2008-09-15, 01:26:05,VALID,1011.62,VALID,0,VALID,95.3219,VALID,0,VALID,22.3108,VALID,78,VALID,0.580859,
2008-09-15, 01:27:05,VALID,1011.63,VALID,0,VALID,95.3448,VALID,0,VALID,22.3303,VALID,78,VALID,0.635938,
2008-09-15, 01:28:05,VALID,1011.64,VALID,0,VALID,95.3524,VALID,0,VALID,22.3498,VALID,71,VALID,0.675781,
2008-09-15, 01:29:05,VALID,1011.64,VALID,0,VALID,95.3524,VALID,0,VALID,22.3303,VALID,74,VALID,0.847266,
2008-09-15, 01:30:05,VALID,1011.61,VALID,0,VALID,95.3372,VALID,0,VALID,22.3498,VALID,62,VALID,0.737891,
2008-09-15, 01:31:05,VALID,1011.6,VALID,0,VALID,95.3448,VALID,0,VALID,22.3498,VALID,72,VALID,0.794531,
2008-09-15, 01:32:05,VALID,1011.62,VALID,0,VALID,95.3219,VALID,0,VALID,22.3904,VALID,65,VALID,0.746094,
2008-09-15, 01:33:05,VALID,1011.56,VALID,0,VALID,95.3143,VALID,0,VALID,22.3693,VALID,61,VALID,0.646875,
2008-09-15, 01:34:05,VALID,1011.57,VALID,0,VALID,95.3067,VALID,0,VALID,22.3303,VALID,71,VALID,0.792969,
2008-09-15, 01:35:05,VALID,1011.56,VALID,0,VALID,95.3067,VALID,0,VALID,22.3498,VALID,79,VALID,0.606641,
2008-09-15, 01:36:05,VALID,1011.54,VALID,0,VALID,95.3143,VALID,0,VALID,22.3676,VALID,95,VALID,0.819531,
2008-09-15, 01:37:05,VALID,1011.5,VALID,0,VALID,95.3067,VALID,0,VALID,22.387,VALID,96,VALID,0.842188,
2008-09-15, 01:38:05,VALID,1011.51,VALID,0,VALID,95.299,VALID,0,VALID,22.387,VALID,103,VALID,0.729297,
2008-09-15, 01:39:05,VALID,1011.49,VALID,0,VALID,95.3295,VALID,0,VALID,22.387,VALID,106,VALID,0.569141,
2008-09-15, 01:40:05,VALID,1011.47,VALID,0,VALID,95.3067,VALID,0,VALID,22.387,VALID,91,VALID,0.654297,
2008-09-15, 01:41:05,VALID,1011.44,VALID,0,VALID,95.299,VALID,0.105969,VALID,22.387,VALID,91,VALID,0.533203,
2008-09-15, 01:42:05,VALID,1011.43,VALID,0,VALID,95.2914,VALID,0.105969,VALID,22.387,VALID,97,VALID,0.712109,
2008-09-15, 01:43:05,VALID,1011.43,VALID,0,VALID,95.3067,VALID,0,VALID,22.426,VALID,100,VALID,0.603125,
2008-09-15, 01:44:05,VALID,1011.41,VALID,0,VALID,95.2838,VALID,0.105969,VALID,22.4065,VALID,67,VALID,0.63125,
2008-09-15, 01:45:05,VALID,1011.4,VALID,0,VALID,95.2685,VALID,0.105969,VALID,22.4065,VALID,83,VALID,0.800391,
2008-09-15, 01:46:05,VALID,1011.36,VALID,0,VALID,95.2304,VALID,0.105969,VALID,22.4065,VALID,98,VALID,0.755469,
2008-09-15, 01:47:05,VALID,1011.34,VALID,0,VALID,95.2838,VALID,0.105969,VALID,22.4455,VALID,96,VALID,0.434375,
2008-09-15, 01:48:05,VALID,1011.33,VALID,0,VALID,95.2457,VALID,0.105969,VALID,22.426,VALID,84,VALID,0.603516,
2008-09-15, 01:49:05,VALID,1011.29,VALID,0,VALID,95.2075,VALID,0.105969,VALID,22.426,VALID,84,VALID,0.658594,
2008-09-15, 01:50:05,VALID,1011.24,VALID,0,VALID,95.1694,VALID,0,VALID,22.426,VALID,80,VALID,0.751953,
2008-09-15, 01:51:05,VALID,1011.22,VALID,0,VALID,95.1694,VALID,0,VALID,22.4277,VALID,88,VALID,0.541406,
2008-09-15, 01:52:05,VALID,1011.22,VALID,0,VALID,95.177,VALID,0,VALID,22.4667,VALID,89,VALID,0.254297,
2008-09-15, 01:53:05,VALID,1011.21,VALID,0,VALID,95.1999,VALID,0,VALID,22.4667,VALID,89,VALID,0.340625,
2008-09-15, 01:54:05,VALID,1011.2,VALID,0,VALID,95.1999,VALID,0,VALID,22.4667,VALID,104,VALID,0.526563,
2008-09-15, 01:55:05,VALID,1011.21,VALID,0,VALID,95.2152,VALID,0,VALID,22.4861,VALID,112,VALID,0.244922,
2008-09-15, 01:56:05,VALID,1011.18,VALID,0,VALID,95.2228,VALID,0,VALID,22.4861,VALID,99,VALID,0.403516,
2008-09-15, 01:57:05,VALID,1011.13,VALID,0,VALID,95.238,VALID,0,VALID,22.4667,VALID,98,VALID,0.385938,
2008-09-15, 01:58:05,VALID,1011.12,VALID,0,VALID,95.2457,VALID,0,VALID,22.4667,VALID,93,VALID,0.351563,
2008-09-15, 01:59:05,VALID,1011.13,VALID,0,VALID,95.2609,VALID,0,VALID,22.4861,VALID,93,VALID,0.285937,
2008-09-15, 02:00:05,VALID,1011.09,VALID,0,VALID,95.238,VALID,0,VALID,22.4878,VALID,85,VALID,0.427734,
2008-09-15, 02:01:05,VALID,1011.1,VALID,0,VALID,95.2304,VALID,0,VALID,22.4667,VALID,83,VALID,0.433594,
2008-09-15, 02:02:05,VALID,1011.08,VALID,0,VALID,95.2228,VALID,0,VALID,22.4667,VALID,91,VALID,0.366016,
2008-09-15, 02:03:05,VALID,1011.08,VALID,0,VALID,95.2152,VALID,0,VALID,22.4667,VALID,105,VALID,0.468359,
2008-09-15, 02:04:05,VALID,1011.09,VALID,0,VALID,95.2457,VALID,0,VALID,22.4861,VALID,105,VALID,0.494141,
2008-09-15, 02:05:05,VALID,1011.07,VALID,0,VALID,95.2152,VALID,0,VALID,22.4861,VALID,105,VALID,0.260547,
2008-09-15, 02:06:05,VALID,1011.04,VALID,0,VALID,95.238,VALID,0,VALID,22.4667,VALID,105,VALID,0.409766,
2008-09-15, 02:07:05,VALID,1011.02,VALID,0,VALID,95.1923,VALID,0,VALID,22.4667,VALID,122,VALID,0.458203,
2008-09-15, 02:08:05,VALID,1011.02,VALID,0,VALID,95.2152,VALID,0,VALID,22.4667,VALID,122,VALID,0.285156,
2008-09-15, 02:09:05,VALID,1010.98,VALID,0,VALID,95.177,VALID,0,VALID,22.4667,VALID,137,VALID,0.708594,
2008-09-15, 02:10:05,VALID,1010.97,VALID,0,VALID,95.1694,VALID,0,VALID,22.4472,VALID,133,VALID,0.421484,
2008-09-15, 02:11:05,VALID,1010.95,VALID,0,VALID,95.1694,VALID,0,VALID,22.4472,VALID,133,VALID,0.219531,
2008-09-15, 02:12:05,VALID,1010.94,VALID,0,VALID,95.1465,VALID,0,VALID,22.426,VALID,145,VALID,0.454688,
2008-09-15, 02:13:05,VALID,1010.91,VALID,0,VALID,95.1389,VALID,0,VALID,22.426,VALID,149,VALID,0.438281,
2008-09-15, 02:14:05,VALID,1010.88,VALID,0,VALID,95.1389,VALID,0,VALID,22.4277,VALID,149,VALID,0.168359,
2008-09-15, 02:15:05,VALID,1010.89,VALID,0,VALID,95.1236,VALID,0,VALID,22.4472,VALID,149,VALID,0.158594,
2008-09-15, 02:16:05,VALID,1010.89,VALID,0,VALID,95.1313,VALID,0,VALID,22.4472,VALID,149,VALID,0.378906,
2008-09-15, 02:17:05,VALID,1010.83,VALID,0,VALID,95.1313,VALID,0,VALID,22.3887,VALID,149,VALID,0.384766,
2008-09-15, 02:18:05,VALID,1010.85,VALID,0,VALID,95.1389,VALID,0,VALID,22.4082,VALID,149,VALID,0.453906,
2008-09-15, 02:19:05,VALID,1010.81,VALID,0,VALID,95.1389,VALID,0,VALID,22.4082,VALID,149,VALID,0.236328,
2008-09-15, 02:20:05,VALID,1010.8,VALID,0,VALID,95.1618,VALID,0,VALID,22.4277,VALID,149,VALID,0.355078,
2008-09-15, 02:21:05,VALID,1010.79,VALID,0,VALID,95.2075,VALID,0,VALID,22.4065,VALID,149,VALID,0.21875,
2008-09-15, 02:22:05,VALID,1010.79,VALID,0,VALID,95.1847,VALID,0,VALID,22.4082,VALID,149,VALID,0.332422,
2008-09-15, 02:23:05,VALID,1010.77,VALID,0,VALID,95.2152,VALID,0.105969,VALID,22.387,VALID,147,VALID,0.252344,
2008-09-15, 02:24:05,VALID,1010.8,VALID,0,VALID,95.177,VALID,0,VALID,22.4082,VALID,147,VALID,0.412891,
2008-09-15, 02:25:05,VALID,1010.77,VALID,0,VALID,95.1618,VALID,0,VALID,22.4082,VALID,147,VALID,0.438281,
2008-09-15, 02:26:05,VALID,1010.8,VALID,0,VALID,95.177,VALID,0,VALID,22.4277,VALID,146,VALID,0.517578,
2008-09-15, 02:27:05,VALID,1010.81,VALID,0,VALID,95.1847,VALID,0,VALID,22.4277,VALID,144,VALID,0.359375,
2008-09-15, 02:28:05,VALID,1010.79,VALID,0,VALID,95.1923,VALID,0,VALID,22.4277,VALID,140,VALID,0.358203,
2008-09-15, 02:29:05,VALID,1010.81,VALID,0,VALID,95.1847,VALID,0,VALID,22.4472,VALID,89,VALID,0.690625,
2008-09-15, 02:30:05,VALID,1010.82,VALID,0,VALID,95.2075,VALID,0,VALID,22.4472,VALID,79,VALID,0.839453,
2008-09-15, 02:31:05,VALID,1010.81,VALID,0,VALID,95.1694,VALID,0,VALID,22.4277,VALID,72,VALID,0.951953,
2008-09-15, 02:32:05,VALID,1010.81,VALID,0,VALID,95.1542,VALID,0,VALID,22.4277,VALID,85,VALID,1.11172,
2008-09-15, 02:33:05,VALID,1010.81,VALID,0,VALID,95.1389,VALID,0,VALID,22.4472,VALID,90,VALID,0.990625,
2008-09-15, 02:34:05,VALID,1010.81,VALID,0,VALID,95.1465,VALID,0,VALID,22.4667,VALID,64,VALID,0.759766,
2008-09-15, 02:35:05,VALID,1010.77,VALID,0,VALID,95.1389,VALID,0,VALID,22.4472,VALID,91,VALID,0.834766,
2008-09-15, 02:36:05,VALID,1010.76,VALID,0,VALID,95.1313,VALID,0,VALID,22.4277,VALID,87,VALID,0.994531,
2008-09-15, 02:37:05,VALID,1010.74,VALID,0,VALID,95.1008,VALID,0,VALID,22.4277,VALID,82,VALID,0.846875,
2008-09-15, 02:38:05,VALID,1010.73,VALID,0,VALID,95.1236,VALID,0,VALID,22.4065,VALID,75,VALID,0.662109,
2008-09-15, 02:39:05,VALID,1010.71,VALID,0,VALID,95.1313,VALID,0,VALID,22.4277,VALID,93,VALID,0.882813,
2008-09-15, 02:40:05,VALID,1010.7,VALID,0,VALID,95.1389,VALID,0,VALID,22.4082,VALID,86,VALID,0.510156,
2008-09-15, 02:41:05,VALID,1010.69,VALID,0,VALID,95.1465,VALID,0,VALID,22.3676,VALID,81,VALID,0.791406,
2008-09-15, 02:42:05,VALID,1010.68,VALID,0,VALID,95.1694,VALID,0,VALID,22.3887,VALID,82,VALID,0.8625,
2008-09-15, 02:43:05,VALID,1010.66,VALID,0,VALID,95.1389,VALID,0,VALID,22.3693,VALID,90,VALID,0.957812,
2008-09-15, 02:44:05,VALID,1010.66,VALID,0,VALID,95.1694,VALID,0,VALID,22.3693,VALID,74,VALID,0.43125,
2008-09-15, 02:45:05,VALID,1010.67,VALID,0,VALID,95.1847,VALID,0,VALID,22.371,VALID,87,VALID,0.845703,
2008-09-15, 02:46:05,VALID,1010.67,VALID,0,VALID,95.1847,VALID,0,VALID,22.3481,VALID,91,VALID,0.835547,
2008-09-15, 02:47:04,VALID,1010.69,VALID,0,VALID,95.1694,VALID,0,VALID,22.3498,VALID,86,VALID,1.15078,
2008-09-15, 02:48:04,VALID,1010.7,VALID,0,VALID,95.1694,VALID,0,VALID,22.371,VALID,78,VALID,1.2082,
2008-09-15, 02:49:04,VALID,1010.68,VALID,0,VALID,95.1923,VALID,0,VALID,22.3498,VALID,89,VALID,1.07578,
2008-09-15, 02:50:04,VALID,1010.67,VALID,0,VALID,95.2152,VALID,0,VALID,22.3498,VALID,82,VALID,0.717969,
2008-09-15, 02:51:04,VALID,1010.67,VALID,0,VALID,95.2228,VALID,0.105969,VALID,22.3481,VALID,82,VALID,0.773047,
2008-09-15, 02:52:04,VALID,1010.67,VALID,0,VALID,95.2457,VALID,0.105969,VALID,22.3481,VALID,98,VALID,0.457812,
2008-09-15, 02:53:04,VALID,1010.67,VALID,0,VALID,95.238,VALID,0,VALID,22.3481,VALID,92,VALID,1.05,
2008-09-15, 02:54:04,VALID,1010.65,VALID,0,VALID,95.2685,VALID,0.105969,VALID,22.3676,VALID,92,VALID,0.771484,
2008-09-15, 02:55:04,VALID,1010.67,VALID,0,VALID,95.2685,VALID,0,VALID,22.3676,VALID,96,VALID,0.650781,
2008-09-15, 02:56:04,VALID,1010.66,VALID,0,VALID,95.2762,VALID,0.105969,VALID,22.3676,VALID,74,VALID,0.832031,
2008-09-15, 02:57:04,VALID,1010.65,VALID,0,VALID,95.2914,VALID,0.105969,VALID,22.387,VALID,71,VALID,0.831641,
2008-09-15, 02:58:04,VALID,1010.66,VALID,0,VALID,95.2457,VALID,0.105969,VALID,22.3676,VALID,104,VALID,1.16211,
2008-09-15, 02:59:04,VALID,1010.7,VALID,0,VALID,95.2457,VALID,0.105969,VALID,22.3481,VALID,72,VALID,0.821875,
2008-09-15, 03:00:04,VALID,1010.68,VALID,0,VALID,95.238,VALID,0,VALID,22.3481,VALID,59,VALID,0.609375,
2008-09-15, 03:01:04,VALID,1010.71,VALID,0,VALID,95.2457,VALID,0.105969,VALID,22.3481,VALID,73,VALID,0.697266,
2008-09-15, 03:02:04,VALID,1010.71,VALID,0,VALID,95.2533,VALID,0.105969,VALID,22.3659,VALID,68,VALID,0.643359,
2008-09-15, 03:03:04,VALID,1010.69,VALID,0,VALID,95.2533,VALID,0.105969,VALID,22.3481,VALID,67,VALID,0.540625,
2008-09-15, 03:04:04,VALID,1010.67,VALID,0,VALID,95.2533,VALID,0.105969,VALID,22.3286,VALID,73,VALID,0.821484,
2008-09-15, 03:05:04,VALID,1010.7,VALID,0,VALID,95.2304,VALID,0,VALID,22.3286,VALID,65,VALID,0.578516,
2008-09-15, 03:06:04,VALID,1010.67,VALID,0,VALID,95.2228,VALID,0,VALID,22.3091,VALID,74,VALID,0.956641,
2008-09-15, 03:07:04,VALID,1010.68,VALID,0,VALID,95.2228,VALID,0,VALID,22.3303,VALID,66,VALID,0.626562,
2008-09-15, 03:08:04,VALID,1010.66,VALID,0,VALID,95.2304,VALID,0.105969,VALID,22.3091,VALID,60,VALID,0.466016,
2008-09-15, 03:09:04,VALID,1010.64,VALID,0,VALID,95.2304,VALID,0,VALID,22.2897,VALID,59,VALID,0.472656,
2008-09-15, 03:10:04,VALID,1010.65,VALID,0,VALID,95.2533,VALID,0,VALID,22.2897,VALID,59,VALID,0.473437,
2008-09-15, 03:11:04,VALID,1010.63,VALID,0,VALID,95.2533,VALID,0.105969,VALID,22.3091,VALID,50,VALID,0.385156,
2008-09-15, 03:12:04,VALID,1010.63,VALID,0,VALID,95.2685,VALID,0,VALID,22.2897,VALID,46,VALID,0.255469,
2008-09-15, 03:13:04,VALID,1010.61,VALID,0,VALID,95.2609,VALID,0.105969,VALID,22.2897,VALID,46,VALID,0.276953,
2008-09-15, 03:14:04,VALID,1010.65,VALID,0,VALID,95.2762,VALID,0.105969,VALID,22.2897,VALID,53,VALID,0.453906,
2008-09-15, 03:15:04,VALID,1010.63,VALID,0,VALID,95.2914,VALID,0.105969,VALID,22.3091,VALID,58,VALID,0.552344,
2008-09-15, 03:16:04,VALID,1010.65,VALID,0,VALID,95.3067,VALID,0.105969,VALID,22.2897,VALID,58,VALID,0.560938,
2008-09-15, 03:17:04,VALID,1010.61,VALID,0,VALID,95.3295,VALID,0.105969,VALID,22.2914,VALID,68,VALID,0.30625,
2008-09-15, 03:18:04,VALID,1010.62,VALID,0,VALID,95.3219,VALID,0.105969,VALID,22.2702,VALID,68,VALID,0.575781,
2008-09-15, 03:19:04,VALID,1010.66,VALID,0,VALID,95.3448,VALID,0.105969,VALID,22.2897,VALID,55,VALID,0.685938,
2008-09-15, 03:20:04,VALID,1010.67,VALID,0,VALID,95.3829,VALID,0,VALID,22.2702,VALID,67,VALID,0.442578,
2008-09-15, 03:21:04,VALID,1010.67,VALID,0,VALID,95.3753,VALID,0,VALID,22.2914,VALID,74,VALID,0.601172,
2008-09-15, 03:22:04,VALID,1010.67,VALID,0,VALID,95.3829,VALID,0,VALID,22.3108,VALID,92,VALID,0.846875,
2008-09-15, 03:23:04,VALID,1010.7,VALID,0,VALID,95.4134,VALID,0,VALID,22.3303,VALID,77,VALID,0.660937,
2008-09-15, 03:24:04,VALID,1010.67,VALID,0,VALID,95.4134,VALID,0,VALID,22.3303,VALID,87,VALID,0.98125,
2008-09-15, 03:25:04,VALID,1010.7,VALID,0,VALID,95.4134,VALID,0,VALID,22.3303,VALID,93,VALID,0.873438,
2008-09-15, 03:26:04,VALID,1010.68,VALID,0,VALID,95.3982,VALID,0,VALID,22.3108,VALID,96,VALID,1.08164,
2008-09-15, 03:27:04,VALID,1010.69,VALID,0,VALID,95.3905,VALID,0,VALID,22.2914,VALID,90,VALID,0.54375,
2008-09-15, 03:28:04,VALID,1010.65,VALID,0,VALID,95.3829,VALID,0,VALID,22.3108,VALID,81,VALID,0.76875,
2008-09-15, 03:29:04,VALID,1010.64,VALID,0,VALID,95.36,VALID,0,VALID,22.3108,VALID,80,VALID,0.655859,
2008-09-15, 03:30:04,VALID,1010.64,VALID,0,VALID,95.3677,VALID,0,VALID,22.3108,VALID,90,VALID,0.9375,
2008-09-15, 03:31:04,VALID,1010.67,VALID,0,VALID,95.3677,VALID,0,VALID,22.2897,VALID,46,VALID,0.605078,
2008-09-15, 03:32:04,VALID,1010.66,VALID,0,VALID,95.3677,VALID,0,VALID,22.3108,VALID,89,VALID,0.325391,
2008-09-15, 03:33:04,VALID,1010.66,VALID,0,VALID,95.3295,VALID,0,VALID,22.2914,VALID,58,VALID,0.851953,
2008-09-15, 03:34:04,VALID,1010.7,VALID,0,VALID,95.3524,VALID,0,VALID,22.2914,VALID,80,VALID,0.809375,
2008-09-15, 03:35:04,VALID,1010.74,VALID,0,VALID,95.3524,VALID,0,VALID,22.3108,VALID,72,VALID,0.923828,
2008-09-15, 03:36:04,VALID,1010.77,VALID,0,VALID,95.36,VALID,0,VALID,22.3108,VALID,69,VALID,0.746484,
2008-09-15, 03:37:04,VALID,1010.76,VALID,0,VALID,95.3524,VALID,0,VALID,22.3108,VALID,80,VALID,1.09375,
2008-09-15, 03:38:04,VALID,1010.77,VALID,0,VALID,95.36,VALID,0,VALID,22.3108,VALID,86,VALID,0.810938,
2008-09-15, 03:39:04,VALID,1010.76,VALID,0,VALID,95.36,VALID,0,VALID,22.3108,VALID,91,VALID,0.855469,
2008-09-15, 03:40:04,VALID,1010.76,VALID,0,VALID,95.36,VALID,0,VALID,22.3108,VALID,90,VALID,0.959375,
2008-09-15, 03:41:04,VALID,1010.75,VALID,0,VALID,95.3524,VALID,0,VALID,22.3108,VALID,82,VALID,0.812891,
2008-09-15, 03:42:04,VALID,1010.74,VALID,0,VALID,95.36,VALID,0,VALID,22.3303,VALID,79,VALID,0.390625,